Home   Weather   Akron   Past weeks

Flag for USA Past Weather in Akron, Ohio, USA — Yesterday and Last 2 Weeks

Now
75 °F

Sunny.


Feels Like: 78 °F
Forecast: 53 / 82 °F
Wind: 8 mph from South

Location: Akron Fulton International Airport

Current Time: Apr 26, 2017 at 2:13:32 pm

Latest Report: Apr 26, 2017 at 12:54 pm


Visibility: 10 mi

Pressure: 29.70 "Hg

Humidity: 55%

Dew Point: 58 °F

Location of AkronLocation

Past Weather in Akron — Graph

°F

Akron Temperature Yesterday

Maximum temperature yesterday: 72 °F (at 2:54 pm)
Minimum temperature yesterday: 54 °F (at 8:54 am)
Average temperature yesterday: 61 °F

High & Low Weather Summary for the Past Weeks

 TemperatureHumidityPressure
High82 °F (Apr 20, 4:54 pm)93% (Apr 20, 3:54 am)30.47 "Hg (Apr 20, 3:54 am)
Low36 °F (Apr 23, 4:54 am)19% (Apr 24, 11:54 am)29.70 "Hg (Apr 26, 12:54 pm)
Average60 °F59%30.08 "Hg
* Reported Apr 11 12:23 pm — Apr 26 12:54 pm, Akron, Weather by CustomWeather, © 2017

Note: Actual official high and low records may vary slightly from our data, if they occured in-between our weather recording intervals... More about our weather records

Advertising

Akron Weather History for the Previous 24 Hours

Scroll right to see more
 ConditionsComfort  
Time TempWeatherWind HumidityBarometerVisibility
12:54 pm
Wed, Apr 26
75 °FSunny.8 mph55%29.70 "Hg10 mi
11:54 am72 °FSunny.7 mph59%29.73 "Hg10 mi
10:54 am67 °FSunny.3 mph66%29.75 "Hg10 mi
9:54 am64 °FSunny.7 mph70%29.75 "Hg10 mi
8:54 am59 °FPassing clouds.6 mph81%29.76 "Hg10 mi
7:54 am56 °FLow clouds.6 mph87%29.77 "Hg8 mi
6:54 am55 °FLow clouds.6 mph90%29.75 "Hg7 mi
5:54 am56 °FLow clouds.3 mph87%29.74 "Hg8 mi
4:54 am56 °FLow clouds.5 mph87%29.73 "Hg9 mi
3:54 am56 °FPassing clouds.5 mph87%29.74 "Hg10 mi
3:27 am55 °FPassing clouds.3 mph87%29.75 "Hg10 mi
2:54 am57 °FClear.3 mph83%29.75 "Hg10 mi
1:54 am58 °FClear.3 mph81%29.75 "Hg10 mi
12:54 am60 °FPassing clouds.7 mph78%29.76 "Hg10 mi
11:54 pm
Tue, Apr 25
62 °FOvercast.7 mph75%29.75 "Hg10 mi
10:54 pm62 °FOvercast.3 mph73%29.76 "Hg10 mi
9:54 pm63 °FOvercast.8 mph73%29.77 "Hg10 mi
8:54 pm66 °FOvercast.5 mph65%29.76 "Hg10 mi
7:54 pm67 °FMostly cloudy.7 mph63%29.76 "Hg10 mi
6:54 pm68 °FOvercast.9 mph59%29.76 "Hg10 mi
5:54 pm69 °FPartly sunny.10 mph57%29.76 "Hg10 mi
4:54 pm69 °FOvercast.9 mph57%29.78 "Hg10 mi
3:54 pm70 °FBroken clouds.12 mph55%29.78 "Hg10 mi
2:54 pm72 °FBroken clouds.9 mph53%29.79 "Hg10 mi
Weather by CustomWeather, © 2017

See weather overviewHow to use our weather pages